Regional Weather Roundup
Issued by NWS Midland/Odessa, TX

Skip options and go directly to product.
Home | Oldest Version | Previous Version | Current Version | All | Text Only | Save Text | Print | Product List | Glossary On

Skip product version selection by date and time.   
735
ASUS44 KMAF 090201
RWRMAF
MIDLAND AREA WEATHER ROUNDUP
NATIONAL WEATHER SERVICE MIDLAND TX
800 PM CST THU DEC 08 2016

...IN SOUTHWEST TEXAS AND SOUTHEAST NEW MEXICO...

CITY           SKY/WX    TMP DP  RH WIND       PRES   REMARKS
ALPINE         CLOUDY    26  25  96 NE3       30.55R
ANDREWS        CLOUDY    27  21  77 SE6       30.58R WCI  21
ARTESIA        CLOUDY    30  27  86 S10       30.52S WCI  21
BIG SPRING     CLOUDY    28  22  78 CALM      30.64R
CARLSBAD       CLOUDY    29  25  85 S9        30.53S WCI  20
DRYDEN           N/A     35  27  72 NE7       30.57R WCI  29
FORT STOCKTON  CLOUDY    28  25  88 NE10      30.57R WCI  19
GUAD PASS      FRZ RAIN  20  20 100 NE28      30.40S VSB 1/4 WCI   2
HOBBS          CLOUDY    27  23  86 SE7       30.53F WCI  19
MARFA          CLOUDY    25  23  92 NE10      30.47R WCI  15
MIDLAND AIRPK  CLOUDY    29  22  76 E5        30.61R WCI  23
MIDLAND INTL   CLOUDY    28  21  75 E5        30.59R WCI  23
ODESSA         CLOUDY    28  20  71 E6        30.59R WCI  22
PECOS          CLOUDY    31  25  80 E8        30.60R WCI  23
PRESIDIO       CLOUDY    38  29  72 NE16      30.50R WCI  28
SEMINOLE       CLOUDY    28  21  75 SE7       30.56F WCI  21
SNYDER         CLOUDY    26  17  70 NE3       30.62R
WINK           CLOUDY    30  23  75 E8        30.58R WCI  22
$$
...OTHER STATIONS IN TEXAS...

CITY           SKY/WX    TMP DP  RH WIND       PRES   REMARKS
ABILENE        CLOUDY    29  17  61 N9        30.65R WCI  20
AMARILLO       CLOUDY    24   8  50 S8        30.53R WCI  15
AUSTIN         CLOUDY    39  23  52 N21       30.61R WCI  29
BROWNSVILLE    LGT RAIN  45  42  89 NW17G31   30.44R WCI  38
CORPUS CHRISTI DRIZZLE   42  38  85 N22       30.52R WCI  33
DALLAS FTW     CLOUDY    34  15  46 NW10      30.65R WCI  26
DEL RIO        CLOUDY    40  27  59 N9        30.61R WCI  34
EL PASO        PTCLDY    34  23  64 E13       30.41R WCI  25
HOUSTON INT    CLOUDY    43  33  68 N16       30.55R WCI  35
LUBBOCK        CLOUDY    28  15  58 SE8       30.55R WCI  20
SAN ANGELO     CLOUDY    30  23  75 NE7       30.64R WCI  23
SAN ANTONIO    CLOUDY    39  22  50 N13       30.58R WCI  31
WACO           CLOUDY    35  21  56 N9        30.66R WCI  28
WICHITA FALLS  NOT AVBL
$$
...OTHER LOCATIONS IN NEW MEXICO...

CITY           SKY/WX    TMP DP  RH WIND       PRES   REMARKS
ALAMAGORDO     NOT AVBL
ALBUQUERQUE    CLOUDY    36  16  44 CALM      30.35R
CANNON AFB     CLOUDY    25  16  69 S8        30.46S WCI  16
CLOVIS         CLOUDY    25  10  54 S10       30.47S WCI  15
HOLLOMAN AFB   CLOUDY    33  23  67 S10       30.44R WCI  25
ROSWELL        CLOUDY    30  20  66 S9        30.50R WCI  22
RUIDOSO        FOG       19  19 100 CALM      30.36F VSB 1/4
SANTA FE       CLOUDY    23  14  68 E5        30.32S WCI  17
TRUTH OR CONSE CLEAR     39  24  55 S5        30.33R WCI  36
TUCUMCARI      CLOUDY    25  17  72 SW10      30.46S WCI  15
$$

  • National Weather Service
  • Southern Region Headquarters
  • 819 Taylor Street, Room 10A06
  • Fort Worth, TX 76102
  • Page Author: NWS Fort Worth
  • Web Master: SR-SRH.Webmaster@noaa.gov
  •  
  • Page last modified: 30-Sep-2016 6:36 PM UTC
USA.gov is the U.S. government's official web portal to all federal, state and local government web resources and services.